Location: McCall
(45.0000°N, 116.0000°W)
Time: 19:28:17
(UTC-06:00)

Amateur Radio Satellites - All Passes

Search period start: 30 September 2016 18:58
Search period end: 01 October 2016 18:58
Location: McCall, 45.0000°N, 116.0000°W

Satellite Date Start Highest point End Downlink Frequencies (MHz)
Time Altitude Azimuth
CUBESAT XI-V 30 Sep 19:02:16 19:06:59 86° 102° (ESE) 19:11:39 437.345
CUSAT 1 30 Sep 19:02:44 19:08:41 35° 86° (E) 19:15:31 437.405
MOZHAYETS 4 30 Sep 19:12:54 19:15:16 14° 300° (WNW) 19:17:37
CANX-2 30 Sep 19:13:10 19:14:29 11° 59° (ENE) 19:15:48 2200.000
KKS-1 30 Sep 19:14:34 19:17:37 19° 298° (WNW) 19:20:40 437.445
NOAA 18 30 Sep 19:16:09 19:21:37 85° 74° (ENE) 19:27:06 137.9125
BRITE-PL 30 Sep 19:17:39 19:22:50 36° 265° (W) 19:27:54 437.365/2234.400
NOAA 15 30 Sep 19:21:48 19:27:03 60° 259° (W) 19:32:19 137.62
DANDE 30 Sep 19:23:54 19:27:50 18° 77° (ENE) 19:32:21 436.750
Cosmos 2499 30 Sep 19:37:03 19:43:45 32° 69° (ENE) 19:50:50 435.465 / 435.565
HORYU 2 30 Sep 19:37:37 19:38:21 10° 272° (W) 19:39:05 437.375
STARS 30 Sep 19:39:18 19:42:28 20° 297° (WNW) 19:45:38 437.465
STRAND 1 30 Sep 19:45:35 19:47:54 13° 88° (E) 19:50:11 437.568
CINEMA 3 30 Sep 19:46:17 19:50:03 29° 68° (ENE) 19:53:42 145.822/145.860
CUTE-I 30 Sep 19:48:56 19:53:57 42° 262° (W) 19:59:01 437.470
Cubesat XI-IV 30 Sep 19:49:50 19:54:51 42° 262° (W) 19:59:54 437.490
GONETS M04 30 Sep 20:05:09 20:13:49 56° 75° (ENE) 20:22:21
ISS 30 Sep 20:05:16 20:08:04 27° 139° (SE) 20:10:53 145.825
COMPASS 1 30 Sep 20:06:02 20:08:44 17° 63° (ENE) 20:11:27 437.405
HO-68 30 Sep 20:11:17 20:18:17 60° 67° (ENE) 20:25:18 435.675
AO-85 30 Sep 20:17:02 20:20:07 16° 110° (ESE) 20:23:05 145.980
LilacSat-2 30 Sep 20:20:51 20:22:47 14° 269° (W) 20:24:45 437.200
GOMX 1 30 Sep 20:31:03 20:34:18 16° 270° (W) 20:37:28 467.674
CUBEBUG 2 30 Sep 20:32:30 20:35:51 24° 67° (ENE) 20:39:11 437.445
DOVE 4 30 Sep 20:34:52 20:39:02 27° 265° (W) 20:43:02 437.250
SEEDS 30 Sep 20:39:04 20:43:08 51° 73° (ENE) 20:47:16 437.485
CUBESAT XI-V 30 Sep 20:41:38 20:43:40 13° 301° (WNW) 20:45:43 437.345
RS-15 30 Sep 20:41:39 20:53:08 70° 117° (ESE) 21:05:14 29.354- 29.394
CUTE 1.7 + AOD 2 30 Sep 20:43:30 20:47:45 82° 74° (ENE) 20:52:02 437.475
CUSAT 1 30 Sep 20:43:46 20:50:20 53° 288° (WNW) 20:58:03 437.405
UWE-3 30 Sep 20:43:57 20:47:05 21° 66° (ENE) 20:50:14 435.000/436.395/437.385
CANX-2 30 Sep 20:45:25 20:49:40 83° 257° (WSW) 20:53:59 2200.000
AAUSAT CUBESAT 2 30 Sep 20:52:24 20:56:17 38° 71° (ENE) 21:00:11 437.432
Oscar 11 30 Sep 20:57:41 21:00:49 20° 64° (ENE) 21:03:58 145.826/435.025
NOAA 18 30 Sep 21:00:16 21:02:58 14° 271° (W) 21:05:41 137.9125
DANDE 30 Sep 21:03:43 21:09:21 79° 283° (WNW) 21:16:45 436.750
ZACube-1 30 Sep 21:05:45 21:09:01 23° 66° (ENE) 21:12:18 437.345
STRAND 1 30 Sep 21:22:32 21:27:43 84° 286° (WNW) 21:32:53 437.568
CINEMA 3 30 Sep 21:23:22 21:27:10 28° 264° (W) 21:30:52 145.822/145.860
Cosmos 2499 30 Sep 21:29:48 21:37:11 56° 268° (W) 21:45:09 435.465 / 435.565
COMPASS 1 30 Sep 21:39:50 21:43:54 50° 261° (W) 21:48:02 437.405
ISS 30 Sep 21:41:13 21:44:25 50° 337° (NNW) 21:47:37 145.825
DELFI C3 30 Sep 21:45:03 21:48:15 23° 67° (ENE) 21:51:29 145.870
AO-85 30 Sep 21:54:55 22:00:05 79° 306° (NW) 22:04:55 145.980
FUNcube-1 30 Sep 21:56:54 22:01:00 75° 76° (ENE) 22:05:10 145.935
HO-68 30 Sep 22:00:22 22:06:24 29° 266° (W) 22:12:28 435.675
GONETS M04 30 Sep 22:02:33 22:10:14 36° 276° (W) 22:17:52
CUBEBUG 2 30 Sep 22:08:37 22:12:21 31° 263° (W) 22:16:05 437.445
PRISM 30 Sep 22:11:52 22:15:35 32° 97° (E) 22:19:16 437.425
SEEDS 30 Sep 22:16:37 22:19:09 15° 270° (W) 22:21:42 437.485
UWE-3 30 Sep 22:19:32 22:23:22 36° 263° (W) 22:27:13 435.000/436.395/437.385
AAUSAT CUBESAT 2 30 Sep 22:28:50 22:31:54 20° 268° (W) 22:35:00 437.432
CUSAT 1 30 Sep 22:31:26 22:34:28 13° 311° (NW) 22:37:39 437.405
HUMSAT D 30 Sep 22:32:10 22:35:58 38° 70° (ENE) 22:39:49 437.325/437.525
Oscar 11 30 Sep 22:32:33 22:36:39 43° 261° (W) 22:40:48 145.826/435.025
ZACube-1 30 Sep 22:41:24 22:45:09 33° 264° (W) 22:48:56 437.345
DANDE 30 Sep 22:49:52 22:53:46 17° 307° (NW) 22:58:11 436.750
RS-15 30 Sep 22:55:10 23:06:28 47° 324° (NW) 23:18:16 29.354- 29.394
TIGRISAT 30 Sep 22:57:58 23:00:31 15° 91° (E) 23:03:05 435.000
STRAND 1 30 Sep 23:03:45 23:06:06 13° 304° (NW) 23:08:26 437.568
SO-50 30 Sep 23:03:59 23:07:57 27° 41° (NE) 23:11:49 436.795
AISAT 30 Sep 23:11:23 23:12:32 11° 58° (ENE) 23:13:42 437.250
ISS 30 Sep 23:18:38 23:21:24 25° 356° (N) 23:24:11 145.825
DELFI C3 30 Sep 23:19:23 23:22:57 31° 264° (W) 23:26:34 145.870
M-CUBED/EXP-1 PRIME 30 Sep 23:23:10 23:24:09 11° 57° (ENE) 23:25:06 437.505
DX 1 30 Sep 23:34:39 23:36:07 11° 58° (ENE) 23:37:34 434.975-435.025
AO-85 30 Sep 23:37:57 23:41:14 17° 325° (NW) 23:44:23 145.980
UNISAT 6 30 Sep 23:38:27 23:42:39 40° 98° (E) 23:46:55 437.425
JAS-2 30 Sep 23:40:08 23:40:28 10° 78° (ENE) 23:40:49 435.910
CUBEBUG 1 30 Sep 23:46:54 23:50:39 28° 67° (ENE) 23:54:24 437.445
PRISM 30 Sep 23:47:24 23:50:45 24° 294° (WNW) 23:54:04 437.425
50 SAT 30 Sep 23:48:41 23:51:12 18° 65° (ENE) 23:53:43 437.505
VELOX 1 30 Sep 23:51:47 23:55:25 25° 66° (ENE) 23:59:03 145.980
ESTCUBE 1 01 Oct 00:06:06 00:10:36 67° 74° (ENE) 00:15:08 437.505/2401.250
HUMSAT D 01 Oct 00:08:46 00:11:44 19° 268° (W) 00:14:45 437.325/437.525
SPROUT 01 Oct 00:12:02 00:15:19 22° 65° (ENE) 00:18:35 437.525
QB50P1 01 Oct 00:12:22 00:14:06 12° 89° (E) 00:15:51 145.935-145.965
ANTELSAT 01 Oct 00:13:33 00:18:01 88° 284° (WNW) 00:22:33 437.575/2403.000
AUBIESAT-1 01 Oct 00:14:26 00:17:49 29° 64° (ENE) 00:21:01 437.475
POPSAT HIP 1 01 Oct 00:25:23 00:28:08 17° 92° (E) 00:30:54 437.405
UKube-1 01 Oct 00:32:30 00:36:21 32° 67° (ENE) 00:40:12 .
TIGRISAT 01 Oct 00:33:12 00:37:33 59° 287° (WNW) 00:41:59 435.000
NANOSAT C BR1 01 Oct 00:38:49 00:42:08 22° 94° (E) 00:45:27 145.865
AISAT 01 Oct 00:43:50 00:48:17 87° 82° (E) 00:52:46 437.250
SO-50 01 Oct 00:44:14 00:48:37 46° 241° (WSW) 00:52:54 436.795
M-CUBED/EXP-1 PRIME 01 Oct 00:54:13 00:58:14 77° 252° (WSW) 01:01:58 437.505
ISS 01 Oct 00:55:27 00:58:30 34° 17° (NNE) 01:01:33 145.825
BEESAT 2 01 Oct 00:58:37 01:01:28 19° 113° (ESE) 01:04:21 435.950
QB50P2 01 Oct 01:05:03 01:09:10 48° 99° (E) 01:13:15 145.880/145.840
POLYITAN 1 01 Oct 01:07:13 01:11:19 48° 99° (E) 01:15:26 437.675
DX 1 01 Oct 01:07:15 01:11:37 87° 254° (WSW) 01:16:02 434.975-435.025
RS-15 01 Oct 01:12:47 01:23:03 30° 358° (N) 01:33:29 29.354- 29.394
UNISAT 6 01 Oct 01:15:43 01:19:09 22° 295° (WNW) 01:22:38 437.425
JAS-2 01 Oct 01:19:28 01:27:12 56° 98° (E) 01:34:28 435.910
TISAT 1 01 Oct 01:19:43 01:23:03 24° 66° (ENE) 01:26:24 437.305
50 SAT 01 Oct 01:21:06 01:24:26 34° 262° (W) 01:27:49 437.505
CUBEBUG 1 01 Oct 01:22:57 01:26:52 31° 264° (W) 01:30:47 437.445
VELOX 1 01 Oct 01:27:38 01:31:43 35° 263° (W) 01:35:49 145.980
BUGSAT 1 01 Oct 01:28:25 01:31:55 28° 96° (E) 01:35:25 437.445
BEESAT 3 01 Oct 01:32:08 01:36:02 86° 125° (SE) 01:40:00 437.485
DUCHIFAT 1 01 Oct 01:40:02 01:44:15 86° 288° (WNW) 01:48:27 145.980
ITUPSAT 1 01 Oct 01:45:31 01:47:06 12° 56° (ENE) 01:48:42 437.325
ESTCUBE 1 01 Oct 01:45:37 01:47:52 14° 271° (W) 01:50:08 437.505/2401.250
QB50P1 01 Oct 01:46:08 01:50:19 64° 286° (WNW) 01:54:29 145.935-145.965
SPROUT 01 Oct 01:47:04 01:51:02 37° 262° (W) 01:55:01 437.525
Cosmos 2491 01 Oct 01:48:54 01:57:06 40° 70° (ENE) 02:05:12 435.465 / 435.565
AUBIESAT-1 01 Oct 01:49:08 01:52:17 23° 258° (WSW) 01:55:16 437.475
ANTELSAT 01 Oct 01:52:52 01:54:03 11° 301° (WNW) 01:55:14 437.575/2403.000
SWISSCUBE 01 Oct 01:55:10 01:58:02 16° 60° (ENE) 02:00:54 437.505
POPSAT HIP 1 01 Oct 02:00:07 02:04:10 46° 289° (WNW) 02:08:13 437.405
BEESAT 01 Oct 02:07:17 02:10:32 19° 61° (ENE) 02:13:48 436.000
UKube-1 01 Oct 02:08:46 02:12:23 26° 265° (W) 02:16:03 .
NANOSAT C BR1 01 Oct 02:14:08 02:17:57 35° 291° (WNW) 02:21:46 145.865
ISS 01 Oct 02:31:53 02:35:06 54° 216° (SW) 02:38:19 145.825
BEESAT 2 01 Oct 02:35:11 02:38:59 44° 311° (NW) 02:42:50 435.950
QB50P2 01 Oct 02:41:47 02:44:37 18° 297° (WNW) 02:47:27 145.880/145.840
POLYITAN 1 01 Oct 02:43:57 02:46:47 18° 297° (WNW) 02:49:37 437.675
Gurwin Techsat 1B 01 Oct 02:44:36 02:48:25 20° 91° (E) 02:52:12 435.225
YUBILEINY 01 Oct 02:50:07 02:57:44 35° 84° (E) 03:05:19 435.215
TISAT 1 01 Oct 02:54:46 02:58:33 33° 263° (W) 03:02:21 437.305
Oscar 19 01 Oct 02:57:03 03:02:04 49° 100° (E) 03:07:02 437.125/150
BUGSAT 1 01 Oct 03:03:53 03:07:12 25° 293° (WNW) 03:10:33 437.445
MOZHAYETS 4 01 Oct 03:04:02 03:05:39 12° 58° (ENE) 03:07:16
JAS-2 01 Oct 03:04:51 03:11:51 37° 298° (WNW) 03:18:34 435.910
BEESAT 3 01 Oct 03:11:56 03:14:15 15° 324° (NW) 03:16:35 437.485
ITUPSAT 1 01 Oct 03:19:23 03:24:09 82° 76° (ENE) 03:28:57 437.325
Cosmos 2504 01 Oct 03:26:52 03:31:38 19° 80° (E) 03:36:21 435.465 / 435.565
RS-15 01 Oct 03:28:22 03:39:56 42° 31° (NNE) 03:51:24 29.354- 29.394
SWISSCUBE 01 Oct 03:30:32 03:35:16 70° 258° (WSW) 03:40:04 437.505
BEESAT 01 Oct 03:43:12 03:47:53 58° 259° (W) 03:52:36 436.000
Cosmos 2491 01 Oct 03:45:43 03:54:09 51° 271° (W) 04:02:31 435.465 / 435.565
AIST 2 01 Oct 03:50:18 03:54:12 44° 119° (ESE) 03:58:09 435.215
PCSat 01 Oct 03:54:26 03:58:32 22° 107° (ESE) 04:02:39 145.827
ITAMSAT 1 01 Oct 03:58:26 04:02:44 25° 94° (E) 04:07:01 435.822/435.867
Gurwin Techsat 1B 01 Oct 04:23:31 04:28:46 60° 289° (WNW) 04:33:59 435.225
CUBESAT XI-V 01 Oct 04:32:42 04:35:02 14° 59° (ENE) 04:37:22 437.345
KKS-1 01 Oct 04:36:43 04:41:05 59° 72° (ENE) 04:45:28 437.445
Oscar 19 01 Oct 04:37:02 04:41:05 24° 298° (WNW) 04:45:06 437.125/150
MOZHAYETS 4 01 Oct 04:37:30 04:42:05 90° 76° (ENE) 04:46:43
AO-7 01 Oct 04:44:30 04:52:02 37° 97° (E) 04:59:32 29.400- 29.500
AO-85 01 Oct 04:45:25 04:48:48 22° 39° (NE) 04:52:00 145.980
YUBILEINY 01 Oct 04:45:31 04:54:07 57° 285° (WNW) 05:02:43 435.215
STARS 01 Oct 05:00:26 05:04:40 51° 71° (ENE) 05:08:55 437.465
ITUPSAT 1 01 Oct 05:00:53 05:02:36 12° 272° (W) 05:04:19 437.325
Cosmos 2504 01 Oct 05:16:47 05:24:07 79° 279° (W) 05:31:19 435.465 / 435.565
AIST 2 01 Oct 05:29:27 05:32:51 24° 318° (NW) 05:36:18 435.215
CUSAT 1 01 Oct 05:34:59 05:41:36 31° 63° (ENE) 05:47:16 437.405
PCSat 01 Oct 05:36:09 05:41:29 59° 306° (NW) 05:46:53 145.827
ITAMSAT 1 01 Oct 05:37:25 05:42:23 45° 291° (WNW) 05:47:20 435.822/435.867
AIST 1 01 Oct 05:37:46 05:41:57 44° 93° (E) 05:46:07
RS-15 01 Oct 05:41:27 05:53:52 82° 239° (WSW) 06:06:00 29.354- 29.394
HORYU 2 01 Oct 05:47:21 05:49:30 13° 90° (E) 05:51:40 437.375
DANDE 01 Oct 05:57:44 06:04:24 25° 60° (ENE) 06:10:41 436.750
CUBESAT XI-V 01 Oct 06:07:03 06:11:46 81° 258° (WSW) 06:16:31 437.345
KKS-1 01 Oct 06:15:31 06:18:02 15° 269° (W) 06:20:32 437.445
O/OREOS (USA 219) 01 Oct 06:24:12 06:25:10 11° 96° (E) 06:26:08 437.305
AO-85 01 Oct 06:25:29 06:29:31 49° 241° (WSW) 06:33:17 145.980
AO-7 01 Oct 06:37:04 06:45:06 56° 297° (WNW) 06:53:05 29.400- 29.500
STARS 01 Oct 06:38:31 06:41:19 17° 268° (W) 06:44:07 437.465
YUBILEINY 01 Oct 06:49:48 06:53:16 13° 309° (NW) 06:56:44 435.215
GOMX 1 01 Oct 06:52:14 06:54:41 15° 89° (E) 06:57:05 467.674
STRAND 1 01 Oct 07:02:38 07:06:39 24° 63° (ENE) 07:10:42 437.568
Cosmos 2504 01 Oct 07:14:55 07:18:49 15° 302° (WNW) 07:22:42 435.465 / 435.565
CUSAT 1 01 Oct 07:16:44 07:24:11 59° 267° (W) 07:30:16 437.405
AIST 1 01 Oct 07:16:45 07:19:47 18° 291° (WNW) 07:22:50
GONETS M04 01 Oct 07:19:49 07:21:59 11° 70° (ENE) 07:24:08
BRITE-PL 01 Oct 07:20:39 07:25:26 73° 102° (ESE) 07:29:48 437.365/2234.400
HORYU 2 01 Oct 07:22:04 07:26:30 66° 287° (WNW) 07:30:56 437.375
PCSat 01 Oct 07:23:04 07:26:04 15° 328° (NNW) 07:29:04 145.827
NOAA 15 01 Oct 07:34:57 07:40:02 44° 99° (E) 07:45:03 137.62
NOAA 18 01 Oct 07:36:31 07:41:18 30° 96° (E) 07:46:04 137.9125
DANDE 01 Oct 07:39:47 07:48:16 86° 262° (W) 07:55:55 436.750
LilacSat-2 01 Oct 07:49:54 07:53:41 54° 100° (E) 07:57:28 437.200
RS-15 01 Oct 07:55:45 08:04:26 23° 262° (W) 08:13:01 29.354- 29.394
O/OREOS (USA 219) 01 Oct 07:59:15 08:03:49 85° 294° (WNW) 08:08:28 437.305
CUTE-I 01 Oct 08:03:27 08:08:48 66° 102° (ESE) 08:14:08 437.470
Cubesat XI-IV 01 Oct 08:04:31 08:09:53 67° 102° (ESE) 08:15:13 437.490
BEESAT 3 01 Oct 08:10:52 08:13:13 15° 36° (NE) 08:15:34 437.485
Cosmos 2499 01 Oct 08:18:39 08:23:37 21° 81° (E) 08:28:36 435.465 / 435.565
CUTE 1.7 + AOD 2 01 Oct 08:28:13 08:30:08 13° 89° (E) 08:32:01 437.475
GOMX 1 01 Oct 08:28:58 08:33:12 51° 288° (WNW) 08:37:16 467.674
CANX-2 01 Oct 08:29:43 08:32:17 15° 90° (E) 08:34:49 2200.000
DOVE 4 01 Oct 08:30:54 08:35:05 69° 102° (ESE) 08:39:12 437.250
AO-7 01 Oct 08:31:51 08:36:06 15° 319° (NW) 08:40:21 29.400- 29.500
STRAND 1 01 Oct 08:40:37 08:45:32 48° 261° (W) 08:50:30 437.568
BRITE-PL 01 Oct 09:00:47 09:03:13 14° 302° (WNW) 09:05:33 437.365/2234.400
PRISM 01 Oct 09:02:56 09:06:37 31° 68° (ENE) 09:10:18 437.425
CUSAT 1 01 Oct 09:03:19 09:04:14 10° 289° (WNW) 09:05:07 437.405
GONETS M04 01 Oct 09:08:10 09:16:45 59° 91° (E) 09:25:24
BEESAT 2 01 Oct 09:13:44 09:17:08 26° 43° (NE) 09:20:32 435.950
CINEMA 3 01 Oct 09:14:52 09:18:59 53° 100° (E) 09:23:12 145.822/145.860
NOAA 15 01 Oct 09:15:09 09:19:35 27° 297° (WNW) 09:23:58 137.62
NOAA 18 01 Oct 09:16:57 09:22:03 41° 293° (WNW) 09:27:09 137.9125
COMPASS 1 01 Oct 09:21:05 09:24:24 22° 93° (E) 09:27:43 437.405
DANDE 01 Oct 09:24:12 09:29:50 20° 281° (WNW) 09:35:09 436.750
HO-68 01 Oct 09:24:13 09:31:11 52° 101° (E) 09:38:07 435.675
LilacSat-2 01 Oct 09:25:38 09:27:33 13° 297° (WNW) 09:29:29 437.200
ANTELSAT 01 Oct 09:40:57 09:42:22 12° 59° (ENE) 09:43:49 437.575/2403.000
O/OREOS (USA 219) 01 Oct 09:41:54 09:44:00 13° 314° (NW) 09:46:07 437.305
FUNcube-1 01 Oct 09:44:17 09:46:17 13° 89° (E) 09:48:18 145.935
CUTE-I 01 Oct 09:44:33 09:48:20 20° 300° (WNW) 09:52:06 437.470
Cubesat XI-IV 01 Oct 09:45:41 09:49:27 20° 300° (WNW) 09:53:12 437.490
BEESAT 3 01 Oct 09:47:27 09:51:27 87° 235° (SW) 09:55:25 437.485
SEEDS 01 Oct 09:56:18 10:00:36 78° 101° (E) 10:04:51 437.485
CUBEBUG 2 01 Oct 09:56:26 10:00:33 41° 98° (E) 10:04:46 437.445
TIGRISAT 01 Oct 09:58:57 10:01:37 17° 63° (ENE) 10:04:18 435.000
CUTE 1.7 + AOD 2 01 Oct 10:02:07 10:06:25 65° 285° (WNW) 10:10:39 437.475
CANX-2 01 Oct 10:04:14 10:08:27 53° 287° (WNW) 10:12:38 2200.000
UWE-3 01 Oct 10:06:24 10:10:26 36° 97° (E) 10:14:33 435.000/436.395/437.385
AAUSAT CUBESAT 2 01 Oct 10:07:40 10:11:49 55° 100° (E) 10:15:54 437.432
Cosmos 2499 01 Oct 10:08:52 10:15:56 71° 281° (W) 10:23:03 435.465 / 435.565
DOVE 4 01 Oct 10:10:34 10:12:13 12° 300° (WNW) 10:13:53 437.250
Oscar 11 01 Oct 10:17:46 10:21:35 29° 95° (E) 10:25:22 145.826/435.025
ZACube-1 01 Oct 10:26:55 10:31:00 38° 97° (E) 10:35:08 437.345
AIST 2 01 Oct 10:32:51 10:34:19 11° 30° (NNE) 10:35:47 435.215
PRISM 01 Oct 10:38:27 10:41:55 25° 265° (W) 10:45:25 437.425
UNISAT 6 01 Oct 10:39:14 10:43:15 43° 71° (ENE) 10:47:19 437.425
BEESAT 2 01 Oct 10:51:19 10:55:04 38° 242° (WSW) 10:58:47 435.950
PHONESAT 2.4 01 Oct 10:52:26 10:54:44 21° 164° (SSE) 10:57:04 2401.200-2431.200
CINEMA 3 01 Oct 10:53:14 10:55:46 16° 297° (WNW) 10:58:20 145.822/145.860
DELFI C3 01 Oct 10:54:39 10:58:08 28° 95° (E) 11:01:35 145.870
COMPASS 1 01 Oct 10:56:11 11:00:02 35° 290° (WNW) 11:03:52 437.405
GONETS M04 01 Oct 11:06:13 11:14:03 34° 293° (WNW) 11:21:58
QB50P1 01 Oct 11:07:03 11:09:00 13° 61° (ENE) 11:10:57 145.935-145.965
HO-68 01 Oct 11:12:20 11:18:40 35° 300° (WNW) 11:24:58 435.675
ANTELSAT 01 Oct 11:14:13 11:18:28 80° 257° (WSW) 11:22:46 437.575/2403.000
FUNcube-1 01 Oct 11:18:37 11:22:57 67° 285° (WNW) 11:27:21 145.935
POPSAT HIP 1 01 Oct 11:20:02 11:22:48 17° 63° (ENE) 11:25:33 437.405
NANOSAT C BR1 01 Oct 11:32:58 11:36:12 22° 65° (ENE) 11:39:26 145.865
JAS-2 01 Oct 11:33:30 11:39:26 32° 60° (ENE) 11:45:54 435.910
CUBEBUG 2 01 Oct 11:33:43 11:36:57 21° 295° (WNW) 11:40:13 437.445
TIGRISAT 01 Oct 11:33:47 11:37:55 52° 260° (W) 11:42:05 435.000
SEEDS 01 Oct 11:34:02 11:35:41 12° 300° (WNW) 11:37:19 437.485
UWE-3 01 Oct 11:43:14 11:46:44 24° 293° (WNW) 11:50:18 435.000/436.395/437.385
AAUSAT CUBESAT 2 01 Oct 11:44:21 11:46:51 16° 297° (WNW) 11:49:20 437.432
HUMSAT D 01 Oct 11:48:30 11:52:43 56° 100° (E) 11:56:57 437.325/437.525
Oscar 11 01 Oct 11:53:53 11:57:40 29° 292° (WNW) 12:01:25 145.826/435.025
ESTCUBE 1 01 Oct 11:58:36 12:00:27 12° 88° (E) 12:02:17 437.505/2401.250
QB50P2 01 Oct 11:59:20 12:03:20 45° 71° (ENE) 12:07:22 145.880/145.840
POLYITAN 1 01 Oct 12:01:30 12:05:30 45° 71° (ENE) 12:09:31 437.675
ZACube-1 01 Oct 12:03:40 12:07:06 23° 294° (WNW) 12:10:35 437.345
Cosmos 2499 01 Oct 12:07:29 12:10:35 13° 304° (NW) 12:13:42 435.465 / 435.565
AIST 2 01 Oct 12:09:35 12:13:43 55° 51° (NE) 12:17:51 435.215
UNISAT 6 01 Oct 12:17:16 12:20:13 18° 268° (W) 12:23:10 437.425
BUGSAT 1 01 Oct 12:20:04 12:23:27 26° 67° (ENE) 12:26:52 437.445
PHONESAT 2.4 01 Oct 12:27:44 12:30:25 33° 180° (S) 12:33:07 2401.200-2431.200
DELFI C3 01 Oct 12:29:32 12:32:53 26° 292° (WNW) 12:36:12 145.870
DUCHIFAT 1 01 Oct 12:33:23 12:37:34 88° 75° (ENE) 12:41:46 145.980
AISAT 01 Oct 12:33:31 12:35:51 14° 90° (E) 12:38:10 437.250
PCSat 01 Oct 12:39:00 12:43:49 31° 46° (NE) 12:48:37 145.827
Oscar 19 01 Oct 12:39:47 12:42:18 14° 57° (ENE) 12:44:50 437.125/150
QB50P1 01 Oct 12:40:03 12:44:14 68° 259° (WSW) 12:48:26 145.935-145.965
50 SAT 01 Oct 12:47:25 12:49:41 15° 92° (E) 12:51:55 437.505
POPSAT HIP 1 01 Oct 12:54:09 12:58:13 48° 260° (W) 13:02:18 437.405
DX 1 01 Oct 12:55:00 12:57:15 14° 90° (E) 12:59:29 434.975-435.025
YUBILEINY 01 Oct 12:57:31 13:03:23 19° 58° (ENE) 13:09:12 435.215
NANOSAT C BR1 01 Oct 13:07:51 13:11:44 36° 263° (W) 13:15:37 145.865
CUBEBUG 1 01 Oct 13:09:00 13:13:07 40° 98° (E) 13:17:10 437.445
VELOX 1 01 Oct 13:15:24 13:19:29 36° 98° (E) 13:23:31 145.980
JAS-2 01 Oct 13:17:22 13:23:58 59° 261° (W) 13:31:24 435.910
HUMSAT D 01 Oct 13:25:19 13:27:55 16° 297° (WNW) 13:30:30 437.325/437.525
AUBIESAT-1 01 Oct 13:26:10 13:27:32 12° 98° (E) 13:28:53 437.475
SPROUT 01 Oct 13:30:48 13:34:34 30° 96° (E) 13:38:19 437.525
ESTCUBE 1 01 Oct 13:33:15 13:37:47 73° 286° (WNW) 13:42:17 437.505/2401.250
QB50P2 01 Oct 13:36:37 13:39:23 17° 268° (W) 13:42:10 145.880/145.840
POLYITAN 1 01 Oct 13:38:48 13:41:33 17° 268° (W) 13:44:18 437.675
AIST 2 01 Oct 13:49:02 13:51:49 17° 249° (WSW) 13:54:35 435.215
UKube-1 01 Oct 13:53:00 13:57:08 43° 99° (E) 14:01:14 .
BUGSAT 1 01 Oct 13:55:15 13:58:46 28° 264° (W) 14:02:17 437.445
AO-7 01 Oct 13:57:40 14:02:17 16° 42° (NE) 14:06:54 29.400- 29.500
PHONESAT 2.4 01 Oct 14:03:48 14:06:06 21° 197° (SSW) 14:08:25 2401.200-2431.200
M-CUBED/EXP-1 PRIME 01 Oct 14:05:41 14:08:51 47° 106° (ESE) 14:12:03 437.505
Gurwin Techsat 1B 01 Oct 14:07:14 14:12:05 38° 67° (ENE) 14:16:58 435.225
AISAT 01 Oct 14:08:23 14:12:43 60° 287° (WNW) 14:17:02 437.250
Oscar 19 01 Oct 14:15:39 14:20:52 87° 73° (ENE) 14:26:05 437.125/150
50 SAT 01 Oct 14:19:54 14:23:20 38° 289° (WNW) 14:26:43 437.505
PCSat 01 Oct 14:22:13 14:27:26 48° 245° (WSW) 14:32:36 145.827
DX 1 01 Oct 14:29:33 14:33:50 60° 287° (WNW) 14:38:06 434.975-435.025
TISAT 1 01 Oct 14:36:20 14:40:03 30° 96° (E) 14:43:44 437.305
CUBEBUG 1 01 Oct 14:45:52 14:49:09 21° 296° (WNW) 14:52:23 437.445
VELOX 1 01 Oct 14:52:13 14:55:46 24° 295° (WNW) 14:59:18 145.980
Cosmos 2491 01 Oct 14:52:42 15:00:43 42° 86° (E) 15:08:47 435.465 / 435.565
YUBILEINY 01 Oct 14:52:57 15:01:43 82° 81° (E) 15:10:26 435.215
AUBIESAT-1 01 Oct 14:59:06 15:02:14 40° 294° (WNW) 15:05:24 437.475
SO-50 01 Oct 14:59:48 15:04:11 36° 117° (ESE) 15:08:33 436.795
Cosmos 2504 01 Oct 15:05:48 15:12:50 42° 73° (ENE) 15:20:17 435.465 / 435.565
SPROUT 01 Oct 15:06:50 15:10:25 27° 293° (WNW) 15:13:59 437.525
ITAMSAT 1 01 Oct 15:18:05 15:23:01 47° 69° (ENE) 15:27:59 435.822/435.867
ITUPSAT 1 01 Oct 15:18:50 15:22:09 18° 92° (E) 15:25:28 437.325
SWISSCUBE 01 Oct 15:29:06 15:33:07 26° 95° (E) 15:37:06 437.505
UKube-1 01 Oct 15:29:43 15:32:53 20° 296° (WNW) 15:36:03 .
BEESAT 01 Oct 15:41:27 15:45:41 30° 96° (E) 15:49:53 436.000
M-CUBED/EXP-1 PRIME 01 Oct 15:41:52 15:43:03 12° 303° (WNW) 15:44:14 437.505
AIST 1 01 Oct 15:43:53 15:46:14 14° 67° (ENE) 15:48:33
AO-7 01 Oct 15:45:19 15:53:25 60° 64° (ENE) 16:01:32 29.400- 29.500
Gurwin Techsat 1B 01 Oct 15:47:24 15:52:05 31° 265° (W) 15:56:47 435.225
Oscar 19 01 Oct 15:58:40 16:00:51 13° 272° (W) 16:03:03 437.125/150
TISAT 1 01 Oct 16:12:08 16:15:35 26° 293° (WNW) 16:19:02 437.305
O/OREOS (USA 219) 01 Oct 16:28:25 16:32:32 31° 57° (ENE) 16:36:36 437.305
MOZHAYETS 4 01 Oct 16:31:23 16:34:40 19° 91° (E) 16:37:55
SO-50 01 Oct 16:40:12 16:44:40 36° 315° (NW) 16:49:04 436.795
HORYU 2 01 Oct 16:47:09 16:49:58 17° 62° (ENE) 16:52:49 437.375
Cosmos 2491 01 Oct 16:49:00 16:57:25 48° 287° (WNW) 17:05:56 435.465 / 435.565
YUBILEINY 01 Oct 16:51:13 16:57:27 23° 282° (WNW) 17:03:41 435.215
ITUPSAT 1 01 Oct 16:55:37 17:00:19 55° 289° (WNW) 17:05:01 437.325
BRITE-PL 01 Oct 16:56:13 16:59:41 17° 60° (ENE) 17:03:06 437.365/2234.400
ITAMSAT 1 01 Oct 16:58:33 17:02:42 24° 267° (W) 17:06:53 435.822/435.867
Cosmos 2504 01 Oct 16:59:17 17:06:12 42° 271° (W) 17:13:33 435.465 / 435.565
SWISSCUBE 01 Oct 17:06:32 17:11:01 39° 292° (WNW) 17:15:26 437.505
BEESAT 01 Oct 17:19:11 17:23:27 33° 293° (WNW) 17:27:43 436.000
AIST 1 01 Oct 17:20:02 17:24:14 56° 265° (W) 17:28:23
NOAA 15 01 Oct 17:20:31 17:23:09 14° 56° (NE) 17:25:47 137.62
NOAA 18 01 Oct 17:28:31 17:30:21 12° 53° (NE) 17:32:12 137.9125
AO-7 01 Oct 17:39:14 17:46:34 34° 264° (W) 17:53:58 29.400- 29.500
CUTE-I 01 Oct 17:49:24 17:53:08 20° 60° (ENE) 17:56:53 437.470
Cubesat XI-IV 01 Oct 17:50:36 17:54:22 20° 60° (ENE) 17:58:09 437.490
GOMX 1 01 Oct 18:00:56 18:05:13 26° 66° (ENE) 18:09:18 467.674
KKS-1 01 Oct 18:01:56 18:06:24 89° 263° (W) 18:10:49 437.445
CUBESAT XI-V 01 Oct 18:02:18 18:05:58 22° 93° (E) 18:09:35 437.345
DOVE 4 01 Oct 18:03:42 18:05:21 12° 60° (ENE) 18:06:57 437.250
RS-15 01 Oct 18:05:05 18:07:58 11° 90° (E) 18:10:51 29.354- 29.394
MOZHAYETS 4 01 Oct 18:07:36 18:12:06 50° 289° (WNW) 18:16:35
O/OREOS (USA 219) 01 Oct 18:07:50 18:11:54 31° 255° (WSW) 18:15:56 437.305
HO-68 01 Oct 18:13:50 18:15:27 11° 43° (NE) 18:17:04 435.675
HORYU 2 01 Oct 18:21:46 18:26:06 56° 259° (W) 18:30:28 437.375
STARS 01 Oct 18:23:47 18:28:10 76° 102° (ESE) 18:32:33 437.465
SO-50 01 Oct 18:25:34 18:26:31 10° 337° (NNW) 18:27:27 436.795
BRITE-PL 01 Oct 18:31:50 18:37:32 83° 257° (WSW) 18:43:02 437.365/2234.400
LilacSat-2 01 Oct 18:33:45 18:37:10 34° 70° (ENE) 18:40:37 437.200
CUSAT 1 01 Oct 18:37:44 18:43:17 27° 82° (E) 18:49:29 437.405
